Погода в Иэме

Погода в Иэме : погода сейчас, прогноз погоды и архив. Всё, что Вы хотите узнать о погоде в Иэме!

Поиск расширенной информации на нашем сайте:

Другие новости

Новости СМИ2

Главная страница сайта

Новости сайта

03.07.2017

Напоминаем, что на нашем специализированном сайте Метеоцентр.Азия вы можете получить высокодетализированные автоматические прогнозы погоды по пунктам России, СНГ и мира в авиационном формате (включающие направление и скорость ветра, видимость, явления погоды, количество и форму облачности, нижнюю и верхнюю границу облачности).


Погода в Иэме - сегодня

Время (UTC), дата Ветер
(°,м/с) 
Видим.   Явления Облачность Т
(°С)
Тd
(°С)
f(%) Тe
(°С)
Pmin
(гПа)
dP
(гПа)
Po
(мм)
O2
(г/м3)
Тmin Tmax R s Состояние
почвы
09 22.09.17 330 (СЗ) 20000 м    9/0 средняя 
[Ac As]
+1.5 -4.3 65 1015.2  0.7  701  281    +1.7       
12 22.09.17 350 (С) 20000 м    4/0 средняя 
[Ac trans]
-2 -5.9 75 -3  1016.9  0.5  701  285           
15 22.09.17 070 (В) 20000 м    ясно 
-6.5 -8.1 88 -6  1018.4  0.1  701  290           
18 22.09.17 тихо ()   20000 м    ясно 
-7.5 -8.8 90 -8  1019.2  0.4  701  291           
21 22.09.17 тихо ()   20000 м    3/0 верхняя 
[Ci fib]
-8.9 -10.4 89 -9  1019.9  0.3  702  293  -8.9      равномерный
сухой снег
100% 
00 23.09.17 тихо ()   20000 м    ясно 
-1.6 -5.7 74 -2  1018  0.4  702  285  -9.5         
03 23.09.17 тихо ()   20000 м    ясно 
+2.6 -4 62 +3  1016.5  -0.2  702  280           
06 23.09.17 230 (ЮЗ) 20000 м    ясно 
+4.5 -3.6 56 +5  1015  -0.9  701  278           
09 23.09.17 тихо ()   20000 м    3/0 верхняя 
[Ci fib]
+3.4 -3.5 61 +3  1015.4  0.1  701  279    +4.5       
12 23.09.17 тихо ()   20000 м    ясно 
-3 -5.7 82 -3  1017.4  701  286           
15 23.09.17 350 (С) 20000 м    ясно 
-4 -5.5 89 -5  1017.5  -0.2  701  287           
18 23.09.17 тихо ()   20000 м    ясно 
-5.1 -6.1 93 -5  1017.5  -0.3  701  288           
21 23.09.17 350 (С) 20000 м    1/0 верхняя 
[Ci fib]
-7.8 -8.4 95 -8  1018.3  -0.1  701  291  -8      равномерный
сухой снег
100% 
00 24.09.17 320 (СЗ) 20000 м    ясно 
-2 -1.4 100 -1  1016.1  -0.2  701  284           
03 24.09.17 230 (ЮЗ) 20000 м    1/0 верхняя 
[Ci fib]
+3.4 -0.7 74 +4  1013.4  -0.9  700  278           
06 24.09.17 тихо ()   20000 м    1/0 верхняя 
[Cs]
+8.1 +0 57 +8  1010.9  -1.1  699  273           
09 24.09.17 090 (В) 20000 м    ясно 
+6.7 +0.6 65 +7  1011.1  -0.2  699  275    +8.1       
12 24.09.17 350 (С) 20000 м    ясно 
+3 +0.3 82 +4  1012.7  0.5  699  278           
15 24.09.17 тихо ()   20000 м    ясно 
+1.5 +0.1 90 +2  1013.4  0.2  699  280           
18 24.09.17 320 (СЗ) 20000 м    ясно 
-1.8 -2.6 94 -3  1014.6  0.1  700  284           
21 24.09.17 350 (С) 20000 м    3/0 верхняя 
[Ci fib]
-3.1 -3.8 95 -4  1015.7  0.7  700  286  +4      равномерный
сухой снег
100% 
00 25.09.17 тихо ()   20000 м    1/0 верхняя 
[Ci fib]
+0 -1.7 88 1014.8  0.1  700  282           
03 25.09.17 тихо ()   20000 м    6/0 средняя, верхняя 
[Ac trans|Cs]
+3 +0.1 81 +3  1013  -0.8  699  279           
06 25.09.17 тихо ()   20000 м    6/0 верхняя 
[Cs]
+5.9 +0.8 70 +6  1011.8  -0.3  699  276           
09 25.09.17 тихо ()   20000 м    6/0 верхняя 
[Cs]
+4.4 -0.7 69 +4  1012.5  0.2  699  277    +5.9       
Время (UTC), дата Ветер
(°,м/с) 
Видим.   Явления Облачность Т
(°С)
Тd
(°С)
f(%) Тe
(°С)
Pmin
(гПа)
dP
(гПа)
Po
(мм)
O2
(г/м3)
Тmin Tmax R s Состояние
почвы

Для получения пояснительной информации подведите курсор к названию столбца.

ПОГОДА в Иэме - архив

Всё, что Вы хотите узнать о погоде в Иэме - удобно и подробно!

Выберите нужную дату (начиная с 1 января 2015* года) и нажмите кнопку "Найти".
Будут отображены архивные сводки погоды по пункту Иэма, начиная с указанной даты.


Отображать данные в формате CSV (для использования в таблицах Excel)


Внимание! Наш архив погоды предназначен исключительно для личного некоммерческого использования в познавательных целях. Если Вам необходимы официальные справки о состоянии погоды (для производственных, юридических, коммерческих и т.п. целей), обращайтесь в органы Росгидромета.

*Примечание: данная дата относится к архиву по метеостанциям СССР (Россия, СНГ, Балтия).
Архив по метеостанциям Зарубежной Европы и Азии (кроме Китая) хранится 10 дней, по другим регионам земного шара (Китай, Африка, Америка, Австралия, Океания) - 1 день.

Иэма - район местоположения метеостанции


Название, широта, долгота, высота метеостанции:
Иэма 65.2°ш. 135.9°д. 676 м над ур. моря [Российская Федерация]

Дополнительная информация

В oтличие oт бoльшинства пoгoдных сайтoв мы публикуем пoдрoбную метеoинфoрмацию в детальнoм прoфессиoнальнoм фoрмате.

Характеристики температуры и влажнoсти вoздуха измеряются на высoте 2 м в тени вдали oт зданий и деревьев.
Скoрoсть ветра измеряется на высoте 10 м (на урoвне рoста челoвека скoрoсть ветра ниже в 1.5-2 раза). Если метеoстанция нахoдится в гoрoде или в лесу, тo скoрoсть ветра занижена на 2-4 м/с пo сравнению с oткрытым местoм. Скoрoсть ветра над акватoриями крупных рек и oзёр, а также на вершинах хoлмoв на 2-5 м/с выше, чем в oбычных услoвиях.
Атмoсфернoе давление в разных тoчках местнoсти мoжет значительнo oтличаться oт давления на метеoстанции, в зависимoсти oт услoвий рельефа (при пoдъёме на 10 м давление пoнижается примернo на 1 мм рт.ст.).